"TOA5","MOW","CPU:UNC_MeetingWaters","DataHourly"
"TIMESTAMP","SondeTempC","SpCond","DOSat","DOmg","pH","Turb","BattVolt_Min"
"TS","","","","","","",""
"","Smp","Smp","Smp","Smp","Smp","Smp","Min"
"2005-06-01 00:00:00",18.4899997711,0.0,97.1999969482,9.10999965668,9.18000030518,8.0,12.9300003052
"2005-06-01 01:00:00",18.4500007629,0.0,97.5,9.14999961853,8.76000022888,7.80000019073,12.9099998474
"2005-06-01 02:00:00",18.2600002289,0.0,97.8000030518,9.21000003815,8.71000003815,7.40000009537,12.8800001144
"2005-06-01 03:00:00",18.0599994659,0.0,97.8000030518,9.25,8.68000030518,8.0,12.8599996567
"2005-06-01 04:00:00",17.7700004578,0.0,98.3000030518,9.35000038147,8.68000030518,8.10000038147,12.8400001526
"2005-06-01 05:00:00",17.6100006104,0.00400000018999,98.5999984741,9.40999984741,8.67000007629,8.69999980927,12.8100004196
"2005-06-01 06:00:00",17.4799995422,0.00300000002608,97.8000030518,9.35999965668,8.65999984741,8.5,12.779999733
"2005-06-01 07:00:00",17.3999996185,0.221000000834,99.1999969482,9.5,8.67000007629,8.5,12.7700004578
"2005-06-01 08:00:00",17.2000007629,0.00300000002608,100.5,9.67000007629,8.64000034332,9.30000019073,12.8000001907
"2005-06-01 09:00:00",17.0799999237,0.00300000002608,101.800003052,9.82999992371,8.65999984741,12.1999998093,12.8100004196
"2005-06-01 10:00:00",17.1499996185,0.00300000002608,101.900001526,9.81999969482,8.68000030518,16.0,12.8500003815
"2005-06-01 11:00:00",17.0400009155,0.00300000002608,107.900001526,10.4200000763,8.94999980927,20.7000007629,12.9399995804
"2005-06-01 12:00:00",17.3700008392,0.00300000002608,103.099998474,9.89000034332,9.02999973297,22.6000003815,13.1599998474
"2005-06-01 13:00:00",17.6299991608,0.00300000002608,105.900001526,10.1099996567,8.76000022888,20.0,13.5100002289
"2005-06-01 14:00:00",18.0300006866,0.00300000002608,110.199996948,10.4300003052,8.77999973297,15.6000003815,13.470000267
"2005-06-01 15:00:00",18.2600002289,0.00300000002608,112.599998474,10.6000003815,9.02999973297,11.1000003815,13.3999996185
"2005-06-01 16:00:00",17.9599990845,0.00300000002608,105.599998474,10.0,8.93000030518,10.0,13.1199998856
"2005-06-01 17:00:00",17.9699993134,0.00300000002608,102.400001526,9.69999980927,9.03999996185,9.10000038147,13.0699996948
"2005-06-01 18:00:00",17.8500003815,0.00300000002608,100.699996948,9.56000041962,8.89000034332,10.1000003815,13.0
"2005-06-01 19:00:00",17.7700004578,0.00400000018999,98.8000030518,9.39999961853,8.76000022888,11.6000003815,12.9600000381
"2005-06-01 20:00:00",17.6599998474,0.238999992609,96.0999984741,9.15999984741,8.65999984741,18.8999996185,12.9200000763
"2005-06-01 21:00:00",17.6100006104,0.381999999285,94.5999984741,9.02000045776,8.51000022888,20.7999992371,12.8800001144
"2005-06-01 22:00:00",17.6200008392,0.312999993563,92.5,8.81999969482,8.44999980927,60.0,12.8299999237
"2005-06-01 23:00:00",17.7199993134,0.319000005722,88.0999984741,8.38000011444,8.39000034332,129.0,12.7899999619
"2005-06-02 00:00:00",18.1299991608,0.143000006676,99.0,9.35000038147,8.43999958038,289.5,12.7600002289
"2005-06-02 01:00:00",18.0699996948,0.111000001431,96.3000030518,9.10000038147,8.36999988556,158.300003052,12.75
"2005-06-02 02:00:00",17.8899993896,0.111000001431,96.5999984741,9.15999984741,8.22999954224,79.8000030518,12.7399997711
"2005-06-02 03:00:00",17.8500003815,0.109999999404,98.1999969482,9.31999969482,8.13000011444,55.4000015259,12.7399997711
"2005-06-02 04:00:00",17.7900009155,0.082000002265,101.800003052,9.68000030518,8.10000038147,202.0,12.7299995422
"2005-06-02 05:00:00",17.6800003052,0.0769999995828,101.300003052,9.64999961853,8.06999969482,113.400001526,12.7299995422
"2005-06-02 06:00:00",17.6499996185,0.0900000035763,100.900001526,9.60999965668,7.96000003815,65.1999969482,12.7299995422
"2005-06-02 07:00:00",17.6700000763,0.104000002146,99.5999984741,9.48999977112,7.92999982834,47.4000015259,12.720000267
"2005-06-02 08:00:00",17.6700000763,0.116999998689,99.1999969482,9.44999980927,7.88999986649,51.2999992371,12.720000267
"2005-06-02 09:00:00",17.8700008392,0.131999999285,100.199996948,9.51000022888,7.88000011444,122.800003052,12.7399997711
"2005-06-02 10:00:00",17.9599990845,0.135000005364,99.1999969482,9.39999961853,7.92000007629,175.399993896,12.720000267
"2005-06-02 11:00:00",18.1700000763,0.123000003397,101.699996948,9.59000015259,7.90999984741,403.299987793,12.7399997711
"2005-06-02 12:00:00",18.4799995422,0.0860000029206,102.5,9.60999965668,8.02999973297,368.100006104,12.779999733
"2005-06-02 13:00:00",18.5,0.0960000008345,100.599998474,9.43000030518,8.0,218.800003052,12.75
"2005-06-02 14:00:00",18.4899997711,0.116999998689,99.4000015259,9.31000041962,7.90999984741,162.399993896,12.7600002289
"2005-06-02 15:00:00",18.4799995422,0.150999993086,98.5,9.22999954224,7.86000013351,120.199996948,12.7600002289
"2005-06-02 16:00:00",18.4799995422,0.17499999702,97.9000015259,9.18000030518,7.84999990463,102.300003052,12.8000001907
"2005-06-02 17:00:00",18.4200000763,0.20000000298,97.6999969482,9.15999984741,7.88000011444,89.3000030518,12.7700004578
"2005-06-02 18:00:00",18.3500003815,0.204999998212,97.9000015259,9.18999958038,7.90999984741,56.0,12.7299995422
"2005-06-02 19:00:00",18.2700004578,0.148000001907,97.8000030518,9.19999980927,7.96999979019,38.7999992371,12.7100000381
"2005-06-02 20:00:00",18.1900005341,0.151999995112,97.1999969482,9.15999984741,8.03999996185,29.7999992371,12.7100000381
"2005-06-02 21:00:00",18.1200008392,0.180999994278,96.0,9.06999969482,8.10000038147,35.5,12.7100000381
"2005-06-02 22:00:00",18.1000003815,0.326999992132,97.0,9.15999984741,8.10999965668,34.9000015259,12.7100000381
"2005-06-02 23:00:00",18.1399993896,0.250999987125,96.4000015259,9.10000038147,8.15999984741,54.0,12.6999998093
"2005-06-03 00:00:00",18.0499992371,0.151999995112,95.4000015259,9.02000045776,8.11999988556,58.5,12.6999998093
"2005-06-03 01:00:00",17.9599990845,0.150999993086,94.8000030518,8.97999954224,8.10000038147,51.5,12.6999998093
"2005-06-03 02:00:00",17.8600006104,0.148000001907,94.0999984741,8.93000030518,8.09000015259,45.4000015259,12.6899995804
"2005-06-03 03:00:00",17.7800006866,0.143999993801,94.5999984741,8.98999977112,8.09000015259,40.2000007629,12.6899995804
"2005-06-03 04:00:00",17.7000007629,0.144999995828,94.5,9.0,8.07999992371,34.2999992371,12.6899995804
"2005-06-03 05:00:00",17.6800003052,0.146999999881,94.9000015259,9.03999996185,8.07999992371,28.7999992371,12.6800003052
"2005-06-03 06:00:00",17.5900001526,0.00700000021607,95.6999969482,9.13000011444,8.07999992371,19.7999992371,12.6800003052
"2005-06-03 07:00:00",17.5799999237,0.00400000018999,95.4000015259,9.10999965668,8.11999988556,16.3999996185,12.6700000763
"2005-06-03 08:00:00",17.6800003052,0.256000012159,97.1999969482,9.25,8.35000038147,399.899993896,12.6700000763
"2005-06-03 09:00:00",17.6599998474,0.0740000009537,104.5,9.96000003815,8.47999954224,979.0,12.8000001907
"2005-06-03 10:00:00",18.1399993896,0.0920000001788,102.599998474,9.68000030518,8.38000011444,636.5,12.7600002289
"2005-06-03 11:00:00",18.3400001526,0.131999999285,100.800003052,9.47999954224,8.21000003815,688.5,12.8599996567
"2005-06-03 12:00:00",18.5100002289,0.167999997735,100.699996948,9.43000030518,8.09000015259,594.400024414,13.029999733
"2005-06-03 13:00:00",18.6100006104,0.196999996901,96.0,8.97000026703,8.06000041962,417.700012207,13.25
"2005-06-03 14:00:00",18.6599998474,0.22499999404,100.199996948,9.35000038147,8.03999996185,303.200012207,13.1000003815
"2005-06-03 15:00:00",18.7199993134,0.266000002623,100.5,9.36999988556,8.05000019073,327.200012207,13.0900001526
"2005-06-03 16:00:00",18.7900009155,0.312999993563,100.099998474,9.31999969482,8.10000038147,221.800003052,13.0399999619
"2005-06-03 17:00:00",18.8700008392,0.368999987841,100.099998474,9.30000019073,8.15999984741,197.0,12.9200000763
"2005-06-03 18:00:00",18.8600006104,0.368999987841,100.099998474,9.30000019073,8.27000045776,101.099998474,12.8599996567
"2005-06-03 19:00:00",18.8600006104,0.280999988317,100.400001526,9.32999992371,8.35999965668,125.800003052,12.8400001526
"2005-06-03 20:00:00",18.8099994659,0.209999993443,100.099998474,9.31999969482,8.38000011444,99.6999969482,12.7700004578
"2005-06-03 21:00:00",18.7199993134,0.187999993563,99.6999969482,9.30000019073,8.35999965668,67.9000015259,12.7299995422
"2005-06-03 22:00:00",18.6499996185,0.181999996305,99.5,9.30000019073,8.31999969482,53.5999984741,12.6999998093
"2005-06-03 23:00:00",18.5799999237,0.180000007153,99.6999969482,9.32999992371,8.28999996185,39.2999992371,12.6899995804
"2005-06-04 00:00:00",18.5400009155,0.179000005126,99.8000030518,9.34000015259,8.27000045776,33.7999992371,12.6899995804
"2005-06-04 01:00:00",18.5,0.179000005126,98.9000015259,9.27000045776,8.22999954224,29.7999992371,12.6800003052
"2005-06-04 02:00:00",18.4400005341,0.181999996305,96.9000015259,9.09000015259,8.19999980927,26.2000007629,12.6700000763
"2005-06-04 03:00:00",18.3999996185,0.187000006437,95.5,8.96000003815,8.18999958038,23.1000003815,12.6700000763
"2005-06-04 04:00:00",18.3500003815,0.192000001669,90.6999969482,8.52000045776,8.18999958038,21.0,12.6599998474
"2005-06-04 05:00:00",18.3099994659,0.194000005722,96.6999969482,9.09000015259,8.22000026703,20.1000003815,12.6599998474
"2005-06-04 06:00:00",18.25,0.192000001669,97.5,9.18000030518,8.26000022888,18.1000003815,12.6499996185
"2005-06-04 07:00:00",18.2199993134,0.181999996305,98.9000015259,9.31999969482,8.28999996185,16.5,12.6499996185
"2005-06-04 08:00:00",18.2700004578,0.0109999999404,100.199996948,9.43999958038,8.28999996185,15.1000003815,12.720000267
"2005-06-04 09:00:00",18.3700008392,0.00499999988824,99.5999984741,9.35999965668,8.35000038147,14.8999996185,12.7600002289
"2005-06-04 10:00:00",18.5900001526,0.00400000018999,102.699996948,9.60999965668,8.42000007629,14.6000003815,12.9300003052
"2005-06-04 11:00:00",18.7900009155,0.00400000018999,103.300003052,9.63000011444,8.47000026703,14.1000003815,13.0
"2005-06-04 12:00:00",19.2000007629,0.00300000002608,105.0,9.69999980927,8.52999973297,13.3999996185,13.1899995804
"2005-06-04 13:00:00",19.6100006104,0.00300000002608,105.900001526,9.71000003815,8.55000019073,13.0,13.3800001144
"2005-06-04 14:00:00",20.3899993896,0.00300000002608,107.0,9.65999984741,8.57999992371,12.1999998093,13.2700004578
"2005-06-04 15:00:00",20.8899993896,0.00300000002608,105.699996948,9.43999958038,8.57999992371,11.6000003815,13.1999998093
"2005-06-04 16:00:00",20.9400005341,0.00300000002608,104.400001526,9.31999969482,8.57999992371,11.3999996185,13.5100002289
"2005-06-04 17:00:00",20.8700008392,0.00400000018999,103.599998474,9.26000022888,8.56999969482,11.1999998093,13.4399995804
"2005-06-04 18:00:00",20.7299995422,0.00400000018999,102.5,9.18000030518,8.56999969482,11.1000003815,13.1099996567
"2005-06-04 19:00:00",20.5599994659,0.00300000002608,101.400001526,9.11999988556,8.53999996185,11.1000003815,13.0399999619
"2005-06-04 20:00:00",20.4200000763,0.00300000002608,100.400001526,9.05000019073,8.52000045776,11.3000001907,12.9899997711
"2005-06-04 21:00:00",20.2900009155,0.00300000002608,99.8000030518,9.02000045776,8.48999977112,11.3999996185,12.970000267
"2005-06-04 22:00:00",20.1499996185,0.00300000002608,99.5,9.02000045776,8.47000026703,11.1000003815,12.9499998093
"2005-06-04 23:00:00",20.0100002289,0.00300000002608,99.0999984741,9.01000022888,8.47999954224,10.0,12.9300003052
"2005-06-05 00:00:00",19.8199996948,0.00300000002608,99.9000015259,9.11999988556,8.48999977112,9.39999961853,12.9200000763
"2005-06-05 01:00:00",19.6599998474,0.00300000002608,99.6999969482,9.13000011444,8.5,9.30000019073,12.8999996185
"2005-06-05 02:00:00",19.4699993134,0.00300000002608,100.0,9.18999958038,8.5,9.19999980927,12.8900003433
"2005-06-05 03:00:00",19.2800006866,0.00300000002608,100.099998474,9.23999977112,8.51000022888,8.60000038147,12.8699998856
"2005-06-05 04:00:00",19.1299991608,0.00400000018999,100.599998474,9.30000019073,8.5,8.89999961853,12.8599996567
"2005-06-05 05:00:00",18.9599990845,0.00499999988824,100.400001526,9.31999969482,8.48999977112,9.5,12.8500003815
"2005-06-05 06:00:00",18.8199996948,0.00499999988824,100.5,9.35999965668,8.47999954224,10.3000001907,12.8400001526
"2005-06-05 07:00:00",18.6800003052,0.00400000018999,101.099998474,9.43999958038,8.48999977112,10.6000003815,12.8299999237
"2005-06-05 08:00:00",18.6599998474,0.00400000018999,101.900001526,9.52000045776,8.5,10.0,12.8500003815
"2005-06-05 09:00:00",18.8600006104,0.00400000018999,102.699996948,9.56000041962,8.51000022888,9.19999980927,12.8900003433
"2005-06-05 10:00:00",19.1900005341,0.00400000018999,104.800003052,9.68999958038,8.52000045776,8.80000019073,13.1499996185
"2005-06-05 11:00:00",19.8099994659,0.00300000002608,107.099998474,9.77000045776,8.57999992371,8.19999980927,13.5900001526
"2005-06-05 12:00:00",20.5400009155,0.00300000002608,108.900001526,9.80000019073,8.61999988556,8.5,14.1499996185
"2005-06-05 13:00:00",21.2000007629,0.00300000002608,107.400001526,9.53999996185,8.64000034332,8.10000038147,13.9300003052
"2005-06-05 14:00:00",21.6700000763,0.00200000009499,107.5,9.46000003815,8.64999961853,8.0,13.3900003433
"2005-06-05 15:00:00",22.0,0.00200000009499,107.300003052,9.39000034332,8.56999969482,8.89999961853,13.3100004196
"2005-06-05 16:00:00",21.9099998474,0.00200000009499,104.800003052,9.18000030518,8.61999988556,9.69999980927,13.1499996185
"2005-06-05 17:00:00",21.6700000763,0.00200000009499,104.199996948,9.17000007629,8.61999988556,8.89999961853,14.0200004578
"2005-06-05 18:00:00",21.6200008392,0.00200000009499,103.699996948,9.14000034332,8.60999965668,8.80000019073,13.1700000763
"2005-06-05 19:00:00",21.3899993896,0.00200000009499,103.0,9.10999965668,8.57999992371,10.3000001907,13.0600004196
"2005-06-05 20:00:00",21.2000007629,0.00200000009499,101.800003052,9.03999996185,8.53999996185,8.5,13.0
"2005-06-05 21:00:00",21.0200004578,0.00200000009499,100.900001526,8.98999977112,8.47999954224,8.5,12.9899997711
"2005-06-05 22:00:00",20.8999996185,0.00200000009499,100.599998474,8.98999977112,8.44999980927,8.10000038147,12.970000267
"2005-06-05 23:00:00",20.75,0.00200000009499,100.599998474,9.01000022888,8.42000007629,8.19999980927,12.9600000381
"2005-06-06 00:00:00",20.5900001526,0.00300000002608,100.699996948,9.05000019073,8.43000030518,8.60000038147,12.9499998093
"2005-06-06 01:00:00",20.3899993896,0.00300000002608,101.300003052,9.14000034332,8.43000030518,8.69999980927,12.9300003052
"2005-06-06 02:00:00",20.2600002289,0.00300000002608,101.0,9.14000034332,8.47000026703,8.60000038147,12.9200000763
"2005-06-06 03:00:00",20.1000003815,0.00300000002608,101.099998474,9.17000007629,8.48999977112,8.80000019073,12.8999996185
"2005-06-06 04:00:00",19.9400005341,0.00300000002608,100.199996948,9.11999988556,8.5,8.60000038147,12.8900003433
"2005-06-06 05:00:00",19.8199996948,0.00300000002608,100.699996948,9.18999958038,8.52999973297,8.69999980927,12.8800001144
"2005-06-06 06:00:00",19.6900005341,0.00400000018999,100.900001526,9.22999954224,8.55000019073,8.30000019073,12.8699998856
"2005-06-06 07:00:00",19.6000003815,0.00300000002608,101.099998474,9.27000045776,8.56999969482,8.39999961853,12.8599996567
"2005-06-06 08:00:00",19.6100006104,0.00300000002608,102.199996948,9.36999988556,8.59000015259,8.30000019073,12.8900003433
"2005-06-06 09:00:00",19.8600006104,0.00300000002608,104.0,9.47999954224,8.56999969482,8.19999980927,12.9499998093
"2005-06-06 10:00:00",20.1700000763,0.00300000002608,105.5,9.56000041962,8.57999992371,8.80000019073,13.1999998093
"2005-06-06 11:00:00",20.5100002289,0.224000006914,107.800003052,9.69999980927,8.65999984741,9.5,13.7299995422
"2005-06-06 12:00:00",21.3799991608,0.00300000002608,109.0,9.64000034332,8.68999958038,8.89999961853,13.4200000763
"2005-06-06 13:00:00",21.7800006866,0.00300000002608,109.400001526,9.60999965668,8.69999980927,20.1000003815,13.9600000381
"2005-06-06 14:00:00",22.2800006866,0.00300000002608,111.199996948,9.67000007629,8.72000026703,37.5999984741,13.9300003052
"2005-06-06 15:00:00",22.75,0.00300000002608,109.400001526,9.43000030518,8.72000026703,43.7000007629,13.8800001144
"2005-06-06 16:00:00",22.6299991608,0.335000008345,107.300003052,9.27000045776,8.64000034332,33.7999992371,13.8699998856
"2005-06-06 17:00:00",22.2900009155,0.190999999642,104.300003052,9.06999969482,8.64000034332,91.3000030518,13.9399995804
"2005-06-06 18:00:00",22.4799995422,0.00300000002608,102.699996948,8.89999961853,8.65999984741,154.199996948,13.3100004196
"2005-06-06 19:00:00",22.3899993896,0.00200000009499,101.199996948,8.77999973297,8.60999965668,135.899993896,13.0799999237
"2005-06-06 20:00:00",22.3099994659,0.00300000002608,99.8000030518,8.67000007629,8.52000045776,119.900001526,13.0
"2005-06-06 21:00:00",22.0900001526,0.00300000002608,95.4000015259,8.32999992371,8.43999958038,158.100006104,12.9899997711
"2005-06-06 22:00:00",21.8099994659,0.00300000002608,96.0999984741,8.43000030518,8.35000038147,199.300003052,12.970000267
"2005-06-06 23:00:00",21.6599998474,0.00300000002608,95.5999984741,8.40999984741,8.28999996185,183.399993896,12.9499998093
"2005-06-07 00:00:00",21.4799995422,0.00300000002608,95.9000015259,8.47000026703,8.27000045776,128.5,12.9300003052
"2005-06-07 01:00:00",21.25,0.00300000002608,96.3000030518,8.55000019073,8.23999977112,72.3000030518,12.9099998474
"2005-06-07 02:00:00",21.1399993896,0.00300000002608,96.0,8.53999996185,8.25,58.7999992371,12.8900003433
"2005-06-07 03:00:00",20.9300003052,0.00300000002608,97.3000030518,8.68000030518,8.22999954224,25.6000003815,12.8699998856
"2005-06-07 04:00:00",20.7900009155,0.00300000002608,97.5,8.72999954224,8.22999954224,19.7999992371,12.8599996567
"2005-06-07 05:00:00",20.6499996185,0.00300000002608,95.1999969482,8.55000019073,8.26000022888,17.8999996185,12.8400001526
"2005-06-07 06:00:00",20.5300006866,0.00300000002608,97.9000015259,8.81000041962,8.32999992371,14.1000003815,12.8400001526
"2005-06-07 07:00:00",20.3700008392,0.00300000002608,100.699996948,9.09000015259,8.39000034332,11.0,12.8400001526
"2005-06-07 08:00:00",20.3999996185,0.00300000002608,101.599998474,9.15999984741,8.40999984741,10.8000001907,12.8800001144
"2005-06-07 09:00:00",20.5599994659,0.00300000002608,103.099998474,9.27000045776,8.43999958038,11.1000003815,12.9899997711
"2005-06-07 10:00:00",20.9300003052,0.00300000002608,105.900001526,9.44999980927,8.48999977112,9.60000038147,13.2399997711
"2005-06-07 11:00:00",21.4099998474,0.00300000002608,108.0,9.56000041962,8.57999992371,9.5,13.6599998474
"2005-06-07 12:00:00",21.9400005341,0.00300000002608,109.699996948,9.60000038147,8.63000011444,9.39999961853,13.970000267
"2005-06-07 13:00:00",22.6399993896,0.00300000002608,111.099998474,9.60000038147,8.72000026703,8.60000038147,13.9399995804
"2005-06-07 14:00:00",22.6000003815,0.00300000002608,109.099998474,9.43000030518,8.71000003815,9.10000038147,13.9300003052
"2005-06-07 15:00:00",22.9599990845,0.00200000009499,109.900001526,9.43000030518,8.75,52.0999984741,13.970000267
"2005-06-07 16:00:00",22.8600006104,0.00400000018999,106.300003052,9.14999961853,8.72000026703,153.0,13.970000267
"2005-06-07 17:00:00",22.6200008392,0.00300000002608,103.699996948,8.96000003815,8.67000007629,198.800003052,13.970000267
"2005-06-07 18:00:00",22.4500007629,0.337000012398,103.099998474,8.93000030518,8.60000038147,154.399993896,13.0600004196
"2005-06-07 19:00:00",21.9500007629,0.197999998927,101.300003052,8.85999965668,8.57999992371,243.199996948,13.0
"2005-06-07 20:00:00",21.6499996185,0.00400000018999,99.5,8.76000022888,8.64999961853,269.200012207,12.970000267
"2005-06-07 21:00:00",21.4599990845,0.232999995351,96.9000015259,8.55000019073,8.72999954224,235.800003052,12.9600000381
"2005-06-07 22:00:00",21.2900009155,0.277000010014,99.3000030518,8.80000019073,8.56000041962,469.200012207,12.9300003052
"2005-06-07 23:00:00",21.2800006866,0.182999998331,96.5,8.56000041962,8.47999954224,247.800003052,12.9099998474
"2005-06-08 00:00:00",21.3500003815,0.143999993801,93.1999969482,8.25,8.32999992371,171.399993896,12.8900003433
"2005-06-08 01:00:00",21.2399997711,0.0769999995828,90.1999969482,8.01000022888,8.14999961853,114.5,12.8699998856
"2005-06-08 02:00:00",21.1100006104,0.0790000036359,89.1999969482,7.92999982834,7.98999977112,88.3000030518,12.8500003815
"2005-06-08 03:00:00",20.9300003052,0.082000002265,89.3000030518,7.96999979019,7.90000009537,63.9000015259,12.8400001526
"2005-06-08 04:00:00",20.7399997711,0.00400000018999,89.0999984741,7.98000001907,7.84999990463,47.5999984741,12.8199996948
"2005-06-08 05:00:00",20.5900001526,0.00200000009499,90.9000015259,8.17000007629,7.82999992371,36.7999992371,12.8199996948
"2005-06-08 06:00:00",20.4200000763,0.00200000009499,92.0999984741,8.30000019073,7.90000009537,29.5,12.8100004196
"2005-06-08 07:00:00",20.3600006104,0.00200000009499,93.5,8.43999958038,7.94999980927,25.5,12.8100004196
"2005-06-08 08:00:00",20.3099994659,0.00200000009499,95.1999969482,8.60999965668,8.05000019073,18.1000003815,12.8299999237
"2005-06-08 09:00:00",20.3500003815,0.209999993443,98.4000015259,8.88000011444,8.10999965668,17.2000007629,13.0500001907
"2005-06-08 10:00:00",20.5900001526,0.158000007272,101.599998474,9.13000011444,8.22999954224,13.5,13.3500003815
"2005-06-08 11:00:00",20.9799995422,0.00400000018999,104.599998474,9.32999992371,8.28999996185,13.1999998093,13.7600002289
"2005-06-08 12:00:00",21.4899997711,0.00400000018999,105.699996948,9.34000015259,8.36999988556,14.1999998093,14.0399999619
"2005-06-08 13:00:00",21.8099994659,0.00300000002608,107.0,9.39000034332,8.42000007629,13.3999996185,14.0500001907
"2005-06-08 14:00:00",22.3299999237,0.00200000009499,107.800003052,9.35999965668,8.44999980927,10.8000001907,14.0200004578
"2005-06-08 15:00:00",22.6700000763,0.00200000009499,107.300003052,9.27000045776,8.48999977112,9.69999980927,13.9899997711
"2005-06-08 16:00:00",22.5599994659,0.00200000009499,104.800003052,9.06999969482,8.51000022888,10.0,13.1700000763
"2005-06-08 17:00:00",22.3899993896,0.00200000009499,103.900001526,9.02000045776,8.52999973297,10.3000001907,13.1999998093
"2005-06-08 18:00:00",22.2199993134,0.00200000009499,102.800003052,8.94999980927,8.55000019073,13.6999998093,13.3100004196
"2005-06-08 19:00:00",22.0599994659,0.00300000002608,101.699996948,8.88000011444,8.55000019073,14.6000003815,13.0799999237
"2005-06-08 20:00:00",21.9200000763,0.00300000002608,100.0,8.76000022888,8.55000019073,11.3000001907,13.0
"2005-06-08 21:00:00",21.7900009155,0.00300000002608,98.5999984741,8.65999984741,8.53999996185,11.3999996185,12.9899997711
"2005-06-08 22:00:00",21.5200004578,0.00300000002608,98.9000015259,8.72999954224,8.52999973297,17.6000003815,12.970000267
"2005-06-08 23:00:00",21.3500003815,0.00300000002608,99.0,8.76000022888,8.55000019073,16.8999996185,12.9600000381
"2005-06-09 00:00:00",21.2199993134,0.00300000002608,98.0,8.69999980927,8.55000019073,14.1000003815,12.9300003052
"2005-06-09 01:00:00",21.0,0.00200000009499,97.8000030518,8.72000026703,8.52999973297,15.1000003815,12.9099998474
"2005-06-09 02:00:00",20.8099994659,0.00300000002608,97.6999969482,8.73999977112,8.56000041962,13.8000001907,12.8900003433
"2005-06-09 03:00:00",20.6800003052,0.00300000002608,97.5,8.75,8.56000041962,11.8000001907,12.8699998856
"2005-06-09 04:00:00",20.5599994659,0.00300000002608,98.3000030518,8.84000015259,8.56000041962,10.1999998093,12.8500003815
"2005-06-09 05:00:00",20.4899997711,0.00300000002608,99.0,8.92000007629,8.56000041962,9.5,12.8299999237
"2005-06-09 06:00:00",20.4599990845,0.00300000002608,99.4000015259,8.96000003815,8.55000019073,8.80000019073,12.8199996948
"2005-06-09 07:00:00",20.4400005341,0.00300000002608,97.8000030518,8.81999969482,8.52000045776,9.19999980927,12.8000001907
"2005-06-09 08:00:00",20.4099998474,0.00300000002608,100.800003052,9.10000038147,8.48999977112,9.30000019073,12.8199996948